| time (UTC) | temp F | wind direction | speed MPH | gust MPH | rain 1hr in | rain 24hr in | rain mn in | humidity % | barometer mb |
| 20260506175040 | 59 | 304 | 0.0 | 0.0 | 0.00 | 0.00 | 0.20 | 70 | 1005.4 |
| 20260506174026 | 62 | 285 | 1.0 | 2.0 | 0.00 | 0.00 | 0.20 | 73 | 1005.5 |
| 20260506173002 | 65 | 310 | 0.0 | 1.0 | 0.00 | 0.00 | 0.20 | 66 | 1005.3 |
| 20260506171938 | 65 | 239 | 0.0 | 0.0 | 0.00 | 0.00 | 0.20 | 65 | 1005.2 |
| 20260506170914 | 66 | 268 | 1.0 | 2.0 | 0.00 | 0.00 | 0.20 | 66 | 1005.1 |
| 20260506165851 | 65 | 204 | 0.0 | 1.0 | 0.00 | 0.00 | 0.20 | 68 | 1004.8 |
| 20260506164840 | 66 | 191 | 1.0 | 2.0 | 0.00 | 0.00 | 0.20 | 66 | 1005.1 |
| 20260506163819 | 66 | 266 | 2.0 | 3.0 | 0.00 | 0.00 | 0.20 | 64 | 1004.9 |
| 20260506162754 | 66 | 252 | 0.0 | 1.0 | 0.00 | 0.00 | 0.20 | 64 | 1005.0 |
| 20260506161740 | 67 | 268 | 4.0 | 4.0 | 0.00 | 0.00 | 0.20 | 61 | 1004.9 |
| 20260506160722 | 67 | 134 | 1.0 | 1.0 | 0.00 | 0.00 | 0.20 | 62 | 1004.7 |
| 20260506155659 | 68 | 147 | 0.0 | 1.0 | 0.00 | 0.00 | 0.20 | 63 | 1004.6 |
| 20260506154640 | 66 | 246 | 1.0 | 2.0 | 0.00 | 0.00 | 0.20 | 67 | 1004.5 |
| 20260506153626 | 67 | 263 | 5.0 | 6.0 | 0.00 | 0.00 | 0.20 | 63 | 1004.8 |
| 20260506152602 | 69 | 351 | 1.0 | 2.0 | 0.00 | 0.00 | 0.20 | 50 | 1004.7 |
| 20260506151538 | 68 | 133 | 4.0 | 5.0 | 0.00 | 0.00 | 0.20 | 33 | 1004.9 |
| 20260506150514 | 67 | 46 | 2.0 | 4.0 | 0.00 | 0.00 | 0.20 | 38 | 1004.7 |
| 20260506145450 | 67 | 9 | 2.0 | 3.0 | 0.00 | 0.00 | 0.20 | 43 | 1004.9 |
| 20260506144440 | 65 | 308 | 3.0 | 3.0 | 0.00 | 0.00 | 0.20 | 54 | 1004.8 |
| 20260506143419 | 64 | 333 | 0.0 | 0.0 | 0.00 | 0.00 | 0.20 | 45 | 1004.8 |
| 20260506142354 | 58 | 310 | 0.0 | 1.0 | 0.00 | 0.00 | 0.20 | 65 | 1004.9 |
| 20260506141340 | 57 | 310 | 1.0 | 2.0 | 0.00 | 0.00 | 0.20 | 77 | 1005.0 |
| 20260506140323 | 61 | 307 | 2.0 | 2.0 | 0.00 | 0.00 | 0.20 | 70 | 1004.9 |
| 20260506135259 | 61 | 325 | 1.0 | 2.0 | 0.00 | 0.00 | 0.20 | 55 | 1005.0 |
| 20260506134239 | 64 | 194 | 1.0 | 2.0 | 0.00 | 0.00 | 0.20 | 38 | 1005.0 |
| 20260506133227 | 63 | 42 | 4.0 | 5.0 | 0.00 | 0.00 | 0.20 | 41 | 1005.0 |
| 20260506132203 | 63 | 22 | 2.0 | 4.0 | 0.00 | 0.00 | 0.20 | 44 | 1005.1 |
| 20260506131140 | 64 | 99 | 6.0 | 9.0 | 0.00 | 0.00 | 0.20 | 42 | 1005.3 |
| 20260506130130 | 63 | 21 | 6.0 | 8.0 | 0.00 | 0.00 | 0.20 | 40 | 1005.3 |
| 20260506125106 | 64 | 123 | 5.0 | 9.0 | 0.00 | 0.00 | 0.20 | 41 | 1005.2 |
| 20260506124059 | 64 | 35 | 2.0 | 4.0 | 0.00 | 0.00 | 0.20 | 43 | 1005.2 |
| 20260506123035 | 63 | 27 | 1.0 | 2.0 | 0.00 | 0.00 | 0.20 | 44 | 1005.0 |
| 20260506122027 | 63 | 129 | 4.0 | 5.0 | 0.00 | 0.00 | 0.20 | 42 | 1005.1 |
| 20260506121003 | 65 | 107 | 2.0 | 3.0 | 0.00 | 0.00 | 0.20 | 46 | 1005.0 |
| 20260506115941 | 66 | 5 | 2.0 | 4.0 | 0.00 | 0.00 | 0.20 | 39 | 1004.8 |
| 20260506114932 | 66 | 277 | 1.0 | 2.0 | 0.00 | 0.00 | 0.20 | 48 | 1005.1 |
| 20260506113923 | 66 | 17 | 4.0 | 6.0 | 0.00 | 0.00 | 0.20 | 37 | 1005.1 |
| 20260506112859 | 65 | 2 | 1.0 | 2.0 | 0.00 | 0.00 | 0.20 | 46 | 1004.9 |
| 20260506111836 | 65 | 113 | 3.0 | 3.0 | 0.00 | 0.00 | 0.20 | 40 | 1005.3 |
| 20260506110811 | 64 | 82 | 4.0 | 6.0 | 0.00 | 0.00 | 0.20 | 45 | 1005.1 |
| 20260506105803 | 63 | 137 | 1.0 | 2.0 | 0.00 | 0.00 | 0.20 | 42 | 1005.4 |
| 20260506104754 | 63 | 336 | 4.0 | 5.0 | 0.00 | 0.00 | 0.20 | 52 | 1005.3 |
| 20260506103740 | 63 | 298 | 0.0 | 1.0 | 0.00 | 0.00 | 0.20 | 69 | 1005.7 |
| 20260506102723 | 61 | 297 | 1.0 | 4.0 | 0.00 | 0.00 | 0.20 | 69 | 1005.7 |
| 20260506101659 | 62 | 298 | 0.0 | 1.0 | 0.00 | 0.00 | 0.20 | 67 | 1005.6 |
| 20260506100640 | 61 | 297 | 2.0 | 3.0 | 0.00 | 0.00 | 0.20 | 68 | 1005.8 |
| 20260506095627 | 61 | 297 | 4.0 | 5.0 | 0.00 | 0.00 | 0.20 | 66 | 1005.7 |
| 20260506094603 | 61 | 297 | 0.0 | 0.0 | 0.00 | 0.00 | 0.20 | 70 | 1005.6 |
| 20260506093539 | 60 | 297 | 1.0 | 1.0 | 0.00 | 0.00 | 0.20 | 68 | 1005.9 |
| 20260506092515 | 59 | 297 | 1.0 | 2.0 | 0.00 | 0.00 | 0.20 | 69 | 1006.0 |
| 20260506091452 | 59 | 297 | 1.0 | 2.0 | 0.00 | 0.00 | 0.20 | 71 | 1005.8 |
| 20260506090441 | 59 | 297 | 0.0 | 1.0 | 0.00 | 0.00 | 0.20 | 72 | 1005.7 |
| 20260506085422 | 57 | 297 | 0.0 | 0.0 | 0.00 | 0.00 | 0.20 | 74 | 1005.9 |
| 20260506084355 | 56 | 297 | 2.0 | 3.0 | 0.00 | 0.00 | 0.20 | 77 | 1006.0 |
| 20260506083340 | 56 | 296 | 0.0 | 0.0 | 0.00 | 0.00 | 0.20 | 78 | 1005.9 |
| 20260506082323 | 56 | 296 | 0.0 | 1.0 | 0.00 | 0.00 | 0.20 | 76 | 1005.8 |
| 20260506081300 | 54 | 295 | 0.0 | 1.0 | 0.00 | 0.00 | 0.20 | 78 | 1005.9 |
| 20260506080241 | 53 | 296 | 0.0 | 1.0 | 0.00 | 0.00 | 0.20 | 80 | 1006.0 |
| 20260506073139 | 52 | 295 | 1.0 | 1.0 | 0.00 | 0.00 | 0.20 | 82 | 1006.3 |
| 20260506072116 | 52 | 295 | 0.0 | 1.0 | 0.00 | 0.00 | 0.20 | 83 | 1006.6 |
| 20260506071051 | 51 | 295 | 0.0 | 1.0 | 0.00 | 0.00 | 0.20 | 84 | 1006.6 |
| 20260506061923 | 48 | 294 | 1.0 | 2.0 | 0.00 | 0.00 | 0.20 | 98 | 1006.8 |
| 20260506060901 | 48 | 294 | 0.0 | 1.0 | 0.00 | 0.00 | 0.20 | 99 | 1006.9 |
| 20260506050651 | 46 | 295 | 0.0 | 0.0 | 0.00 | 0.00 | 0.20 | 99 | 1007.0 |
| 20260506044620 | 45 | 295 | 0.0 | 0.0 | 0.00 | 0.00 | 0.20 | 99 | 1007.2 |
| 20260506043555 | 45 | 296 | 0.0 | 0.0 | 0.00 | 0.00 | 0.20 | 99 | 1007.2 |
| 20260506042540 | 45 | 296 | 0.0 | 0.0 | 0.00 | 0.00 | 0.20 | 99 | 1007.1 |
| 20260506041524 | 45 | 295 | 0.0 | 1.0 | 0.00 | 0.00 | 0.20 | 99 | 1007.3 |
| 20260506040459 | 45 | 295 | 0.0 | 0.0 | 0.00 | 0.00 | 0.20 | 99 | 1007.3 |
| 20260506035440 | 45 | 295 | 0.0 | 0.0 | 0.00 | 0.00 | 0.20 | 99 | 1007.6 |
| 20260506034428 | 45 | 296 | 0.0 | 1.0 | 0.04 | 0.00 | 0.20 | 99 | 1007.7 |
| 20260506033403 | 46 | 296 | 0.0 | 0.0 | 0.11 | 0.00 | 0.19 | 99 | 1008.1 |
| 20260506032339 | 46 | 296 | 0.0 | 1.0 | 0.18 | 0.00 | 0.17 | 99 | 1007.9 |
| 20260506031315 | 46 | 295 | 0.0 | 0.0 | 0.18 | 0.00 | 0.14 | 99 | 1007.7 |
| 20260506030252 | 46 | 295 | 0.0 | 0.0 | 0.16 | 0.00 | 0.11 | 99 | 1007.9 |
| 20260506025240 | 46 | 295 | 0.0 | 0.0 | 0.11 | 0.00 | 0.08 | 99 | 1008.1 |
| 20260506024220 | 47 | 295 | 0.0 | 0.0 | 0.00 | 0.00 | 0.06 | 99 | 1007.9 |
| 20260506023155 | 47 | 295 | 0.0 | 0.0 | 0.00 | 0.00 | 0.06 | 99 | 1008.2 |
| 20260506022140 | 47 | 295 | 0.0 | 0.0 | 0.07 | 0.00 | 0.06 | 99 | 1008.0 |
| 20260506021123 | 47 | 295 | 0.0 | 0.0 | 0.04 | 0.00 | 0.05 | 99 | 1008.1 |
| 20260506020100 | 47 | 295 | 0.0 | 0.0 | 0.07 | 0.00 | 0.04 | 99 | 1008.0 |
| 20260506015040 | 47 | 295 | 0.0 | 0.0 | 0.00 | 0.00 | 0.03 | 99 | 1008.5 |
| 20260506014027 | 47 | 295 | 0.0 | 0.0 | 0.00 | 0.00 | 0.03 | 99 | 1008.2 |
| 20260506013003 | 47 | 295 | 0.0 | 0.0 | 0.00 | 0.00 | 0.03 | 99 | 1008.2 |
| 20260506011939 | 47 | 295 | 0.0 | 0.0 | 0.00 | 0.00 | 0.03 | 99 | 1008.6 |
| 20260506010915 | 48 | 295 | 0.0 | 0.0 | 0.00 | 0.00 | 0.03 | 99 | 1008.5 |
| 20260506005851 | 48 | 295 | 0.0 | 0.0 | 0.00 | 0.00 | 0.03 | 99 | 1008.8 |
| 20260506004840 | 48 | 295 | 0.0 | 0.0 | 0.00 | 0.00 | 0.03 | 99 | 1008.8 |
| 20260506003819 | 48 | 295 | 0.0 | 0.0 | 0.00 | 0.00 | 0.03 | 99 | 1008.9 |
| 20260506002755 | 47 | 295 | 0.0 | 0.0 | 0.00 | 0.00 | 0.03 | 99 | 1009.2 |
| 20260506001740 | 47 | 295 | 0.0 | 0.0 | 0.00 | 0.00 | 0.03 | 99 | 1009.1 |
| 20260506000723 | 48 | 295 | 0.0 | 0.0 | 0.04 | 0.00 | 0.03 | 99 | 1009.4 |
| 20260505235700 | 48 | 295 | 0.0 | 0.0 | 0.07 | 0.00 | 0.02 | 99 | 1009.6 |
| 20260505234640 | 48 | 295 | 0.0 | 0.0 | 0.07 | 0.00 | 0.01 | 99 | 1010.0 |
| 20260505233627 | 48 | 295 | 0.0 | 0.0 | 0.00 | 0.00 | 0.00 | 99 | 1009.9 |
| 20260505232603 | 48 | 295 | 0.0 | 0.0 | 0.00 | 0.00 | 0.00 | 99 | 1010.1 |
| 20260505231539 | 48 | 295 | 0.0 | 0.0 | 0.00 | 0.00 | 0.00 | 99 | 1010.3 |
| 20260505230515 | 48 | 295 | 0.0 | 0.0 | 0.00 | 0.00 | 0.00 | 99 | 1010.1 |
| 20260505225452 | 48 | 295 | 0.0 | 0.0 | 0.00 | 0.00 | 0.71 | 99 | 1010.4 |
| 20260505224441 | 48 | 295 | 0.0 | 0.0 | 0.00 | 0.00 | 0.71 | 99 | 1010.3 |
| 20260505223421 | 48 | 295 | 0.0 | 0.0 | 0.00 | 0.00 | 0.71 | 99 | 1010.0 |
| 20260505222355 | 48 | 295 | 0.0 | 0.0 | 0.00 | 0.00 | 0.71 | 99 | 1010.3 |
| 20260505221340 | 48 | 295 | 0.0 | 0.0 | 0.00 | 0.00 | 0.71 | 99 | 1010.0 |
| 20260505220323 | 48 | 295 | 0.0 | 0.0 | 0.00 | 0.00 | 0.71 | 99 | 1010.6 |
| 20260505215300 | 48 | 295 | 0.0 | 0.0 | 0.00 | 0.00 | 0.71 | 99 | 1010.3 |
| 20260505214240 | 48 | 295 | 0.0 | 0.0 | 0.00 | 0.00 | 0.71 | 99 | 1010.6 |
| 20260505213228 | 48 | 295 | 0.0 | 0.0 | 0.00 | 0.00 | 0.71 | 99 | 1010.5 |
| 20260505212204 | 49 | 295 | 0.0 | 0.0 | 0.00 | 0.00 | 0.71 | 99 | 1010.6 |
| 20260505211139 | 49 | 295 | 0.0 | 0.0 | 0.00 | 0.00 | 0.71 | 99 | 1010.7 |
| 20260505210115 | 49 | 295 | 0.0 | 0.0 | 0.00 | 0.00 | 0.71 | 99 | 1010.9 |
| 20260505205052 | 49 | 294 | 0.0 | 0.0 | 0.00 | 0.00 | 0.71 | 99 | 1010.8 |
| 20260505204040 | 49 | 295 | 0.0 | 0.0 | 0.00 | 0.00 | 0.71 | 99 | 1011.0 |
| 20260505203020 | 49 | 295 | 0.0 | 0.0 | 0.00 | 0.00 | 0.71 | 99 | 1011.1 |
| 20260505201956 | 49 | 295 | 0.0 | 0.0 | 0.00 | 0.00 | 0.71 | 99 | 1011.0 |
| 20260505200941 | 49 | 295 | 0.0 | 0.0 | 0.00 | 0.00 | 0.71 | 99 | 1011.0 |
| 20260505195923 | 49 | 295 | 0.0 | 0.0 | 0.00 | 0.00 | 0.71 | 99 | 1010.8 |
| 20260505194859 | 49 | 295 | 0.0 | 0.0 | 0.00 | 0.00 | 0.71 | 99 | 1010.8 |
| 20260505193840 | 49 | 294 | 0.0 | 0.0 | 0.00 | 0.00 | 0.71 | 99 | 1010.7 |
| 20260505192828 | 49 | 294 | 0.0 | 0.0 | 0.00 | 0.00 | 0.71 | 99 | 1010.6 |
| 20260505191803 | 49 | 295 | 0.0 | 0.0 | 0.00 | 0.00 | 0.71 | 98 | 1010.6 |
| 20260505190740 | 49 | 295 | 0.0 | 0.0 | 0.00 | 0.00 | 0.71 | 98 | 1010.4 |
| 20260505185716 | 49 | 294 | 0.0 | 0.0 | 0.00 | 0.00 | 0.71 | 98 | 1010.5 |
| 20260505184651 | 50 | 294 | 0.0 | 0.0 | 0.00 | 0.00 | 0.71 | 97 | 1010.4 |
| 20260505183640 | 50 | 294 | 0.0 | 0.0 | 0.00 | 0.00 | 0.71 | 97 | 1010.5 |
| 20260505182625 | 50 | 294 | 0.0 | 0.0 | 0.04 | 0.00 | 0.71 | 97 | 1010.6 |
| 20260505181556 | 50 | 294 | 0.0 | 1.0 | 0.00 | 0.00 | 0.70 | 96 | 1010.4 |
| 20260505180540 | 50 | 294 | 0.0 | 0.0 | 0.00 | 0.00 | 0.70 | 95 | 1010.6 |
| 20260505175523 | 50 | 294 | 0.0 | 1.0 | 0.00 | 0.00 | 0.70 | 95 | 1010.7 |